Saint Bonnet de Bellac- Haute Vienne - France
Donnes mto: samedi, 24/03/2012
Date Horaire Temp. E. Hum. E. P.atmo. Pluie Vent Direction Direction Ensoleilleme Solaire P. de rose Temp au vent Rafales
24/03/2012 00:00 10,8 C 59 % 1022,4 hPa 0,0 mm 0,0 km/h (0 Bft) SE 135 0 min 0 W/m 3,1 C 10,8 C 0,0 km/h (0 Bft)
24/03/2012 00:10 10,4 C 60 % 1022,4 hPa 0,0 mm 0,0 km/h (0 Bft) E-SE 112 0 min 0 W/m 3,0 C 10,4 C 0,0 km/h (0 Bft)
24/03/2012 00:20 10,2 C 60 % 1022,3 hPa 0,0 mm 0,4 km/h (0 Bft) E-NE 67 0 min 0 W/m 2,8 C 10,2 C 4,0 km/h (1 Bft)
24/03/2012 00:30 9,9 C 62 % 1022,3 hPa 0,0 mm 0,0 km/h (0 Bft) E 90 0 min 0 W/m 3,0 C 9,9 C 0,0 km/h (0 Bft)
24/03/2012 00:40 9,6 C 62 % 1022,3 hPa 0,0 mm 0,0 km/h (0 Bft) NE 45 0 min 0 W/m 2,7 C 9,6 C 0,0 km/h (0 Bft)
24/03/2012 00:50 9,3 C 63 % 1022,3 hPa 0,0 mm 0,0 km/h (0 Bft) E-NE 67 0 min 0 W/m 2,6 C 9,3 C 0,0 km/h (0 Bft)
24/03/2012 01:00 9,0 C 63 % 1022,3 hPa 0,0 mm 0,0 km/h (0 Bft) E 90 0 min 0 W/m 2,3 C 9,0 C 0,0 km/h (0 Bft)
24/03/2012 01:10 8,9 C 64 % 1022,2 hPa 0,0 mm 0,7 km/h (0 Bft) E-NE 67 0 min 0 W/m 2,5 C 8,9 C 3,2 km/h (1 Bft)
24/03/2012 01:20 8,8 C 64 % 1022,2 hPa 0,0 mm 0,0 km/h (0 Bft) E-NE 67 0 min 0 W/m 2,4 C 8,8 C 3,6 km/h (1 Bft)
24/03/2012 01:30 8,8 C 65 % 1022,2 hPa 0,0 mm 0,0 km/h (0 Bft) E-NE 67 0 min 0 W/m 2,6 C 8,8 C 0,0 km/h (0 Bft)
24/03/2012 01:40 8,6 C 66 % 1022,2 hPa 0,0 mm 0,4 km/h (0 Bft) E-NE 67 0 min 0 W/m 2,6 C 8,6 C 0,4 km/h (0 Bft)
24/03/2012 01:50 8,5 C 67 % 1022,2 hPa 0,0 mm 0,0 km/h (0 Bft) E 90 0 min 0 W/m 2,7 C 8,5 C 0,0 km/h (0 Bft)
24/03/2012 02:02 8,1 C 66 % 1022,2 hPa 0,0 mm 0,0 km/h (0 Bft) E 90 0 min 0 W/m 2,1 C 8,1 C 0,0 km/h (0 Bft)
24/03/2012 02:10 7,8 C 67 % 1022,2 hPa 0,0 mm 0,7 km/h (0 Bft) E-NE 67 0 min 0 W/m 2,1 C 7,8 C 3,2 km/h (1 Bft)
24/03/2012 02:20 7,5 C 69 % 1022,2 hPa 0,0 mm 0,0 km/h (0 Bft) E-SE 112 0 min 0 W/m 2,2 C 7,5 C 0,0 km/h (0 Bft)
24/03/2012 02:30 7,3 C 69 % 1022,1 hPa 0,0 mm 1,8 km/h (1 Bft) E-SE 112 0 min 0 W/m 2,0 C 7,3 C 1,8 km/h (1 Bft)
24/03/2012 02:40 7,3 C 70 % 1022,1 hPa 0,0 mm 0,0 km/h (0 Bft) E 90 0 min 0 W/m 2,2 C 7,3 C 0,0 km/h (0 Bft)
24/03/2012 02:50 7,3 C 70 % 1022,1 hPa 0,0 mm 0,0 km/h (0 Bft) E 90 0 min 0 W/m 2,2 C 7,3 C 0,0 km/h (0 Bft)
24/03/2012 03:00 7,4 C 70 % 1022,2 hPa 0,0 mm 0,0 km/h (0 Bft) E 90 0 min 0 W/m 2,3 C 7,4 C 0,0 km/h (0 Bft)
24/03/2012 03:10 7,4 C 71 % 1022,1 hPa 0,0 mm 0,4 km/h (0 Bft) E-NE 67 0 min 0 W/m 2,5 C 7,4 C 3,2 km/h (1 Bft)
24/03/2012 03:20 7,4 C 71 % 1022,0 hPa 0,0 mm 0,0 km/h (0 Bft) E-SE 112 0 min 0 W/m 2,5 C 7,4 C 0,0 km/h (0 Bft)
24/03/2012 03:30 7,1 C 72 % 1022,0 hPa 0,0 mm 0,0 km/h (0 Bft) SE 135 0 min 0 W/m 2,4 C 7,1 C 0,0 km/h (0 Bft)
24/03/2012 03:40 6,9 C 71 % 1022,0 hPa 0,0 mm 0,0 km/h (0 Bft) E 90 0 min 0 W/m 2,0 C 6,9 C 0,0 km/h (0 Bft)
24/03/2012 03:50 6,8 C 72 % 1022,1 hPa 0,0 mm 0,0 km/h (0 Bft) E 90 0 min 0 W/m 2,1 C 6,8 C 0,0 km/h (0 Bft)
24/03/2012 04:00 6,4 C 72 % 1022,0 hPa 0,0 mm 0,0 km/h (0 Bft) E-SE 112 0 min 0 W/m 1,7 C 6,4 C 0,0 km/h (0 Bft)
24/03/2012 04:10 6,2 C 72 % 1021,8 hPa 0,0 mm 0,0 km/h (0 Bft) E 90 0 min 0 W/m 1,5 C 6,2 C 0,0 km/h (0 Bft)
24/03/2012 04:20 6,1 C 73 % 1021,8 hPa 0,0 mm 1,1 km/h (1 Bft) SE 135 0 min 0 W/m 1,6 C 6,1 C 3,6 km/h (1 Bft)
24/03/2012 04:30 6,0 C 74 % 1021,8 hPa 0,0 mm 0,0 km/h (0 Bft) E-SE 112 0 min 0 W/m 1,7 C 6,0 C 0,0 km/h (0 Bft)
24/03/2012 04:40 5,8 C 74 % 1021,9 hPa 0,0 mm 1,1 km/h (1 Bft) E-NE 67 0 min 0 W/m 1,5 C 5,8 C 4,0 km/h (1 Bft)
24/03/2012 04:50 5,7 C 74 % 1021,9 hPa 0,0 mm 0,0 km/h (0 Bft) E 90 0 min 0 W/m 1,4 C 5,7 C 0,0 km/h (0 Bft)
24/03/2012 05:00 5,4 C 75 % 1022,0 hPa 0,0 mm 0,0 km/h (0 Bft) E 90 0 min 0 W/m 1,3 C 5,4 C 0,0 km/h (0 Bft)
24/03/2012 05:10 5,2 C 76 % 1022,1 hPa 0,0 mm 0,0 km/h (0 Bft) E 90 0 min 0 W/m 1,3 C 5,2 C 0,0 km/h (0 Bft)
24/03/2012 05:20 5,0 C 77 % 1022,0 hPa 0,0 mm 0,0 km/h (0 Bft) E-SE 112 0 min 0 W/m 1,3 C 5,0 C 0,0 km/h (0 Bft)
24/03/2012 05:30 5,2 C 77 % 1022,0 hPa 0,0 mm 0,0 km/h (0 Bft) SE 135 0 min 0 W/m 1,5 C 5,2 C 0,0 km/h (0 Bft)
24/03/2012 05:40 5,2 C 77 % 1022,2 hPa 0,0 mm 0,7 km/h (0 Bft) SE 135 0 min 0 W/m 1,5 C 5,2 C 3,2 km/h (1 Bft)
24/03/2012 05:50 5,1 C 77 % 1022,2 hPa 0,0 mm 0,0 km/h (0 Bft) E 90 0 min 0 W/m 1,4 C 5,1 C 0,0 km/h (0 Bft)
24/03/2012 06:00 5,3 C 77 % 1022,1 hPa 0,0 mm 0,0 km/h (0 Bft) E-SE 112 0 min 0 W/m 1,6 C 5,3 C 3,2 km/h (1 Bft)
24/03/2012 06:10 5,4 C 77 % 1022,2 hPa 0,0 mm 1,8 km/h (1 Bft) E 90 0 min 0 W/m 1,7 C 5,4 C 4,3 km/h (1 Bft)
24/03/2012 06:20 5,3 C 77 % 1022,2 hPa 0,0 mm 0,4 km/h (0 Bft) E-SE 112 0 min 0 W/m 1,6 C 5,3 C 3,2 km/h (1 Bft)
24/03/2012 06:30 5,1 C 77 % 1022,3 hPa 0,0 mm 0,0 km/h (0 Bft) SE 135 0 min 0 W/m 1,4 C 5,1 C 0,0 km/h (0 Bft)
24/03/2012 06:40 5,1 C 78 % 1022,3 hPa 0,0 mm 0,4 km/h (0 Bft) E-SE 112 0 min 0 W/m 1,6 C 5,1 C 1,4 km/h (1 Bft)
24/03/2012 06:50 5,1 C 78 % 1022,3 hPa 0,0 mm 0,4 km/h (0 Bft) E-SE 112 0 min 0 W/m 1,6 C 5,1 C 3,2 km/h (1 Bft)
24/03/2012 07:00 5,0 C 78 % 1022,3 hPa 0,0 mm 0,0 km/h (0 Bft) E-SE 112 0 min 0 W/m 1,5 C 5,0 C 0,0 km/h (0 Bft)
24/03/2012 07:10 4,9 C 78 % 1022,3 hPa 0,0 mm 0,0 km/h (0 Bft) E-SE 112 2 min 0 W/m 1,4 C 4,9 C 0,0 km/h (0 Bft)
24/03/2012 07:20 4,8 C 79 % 1022,4 hPa 0,0 mm 1,1 km/h (1 Bft) E-NE 67 2 min 0 W/m 1,5 C 4,8 C 4,0 km/h (1 Bft)
24/03/2012 07:30 4,9 C 79 % 1022,5 hPa 0,0 mm 0,0 km/h (0 Bft) E 90 2 min 0 W/m 1,6 C 4,9 C 0,0 km/h (0 Bft)
24/03/2012 07:40 4,9 C 79 % 1022,5 hPa 0,0 mm 0,0 km/h (0 Bft) E 90 2 min 0 W/m 1,6 C 4,9 C 0,0 km/h (0 Bft)
24/03/2012 07:50 5,1 C 79 % 1022,6 hPa 0,0 mm 0,7 km/h (0 Bft) E-SE 112 2 min 0 W/m 1,8 C 5,1 C 3,6 km/h (1 Bft)
24/03/2012 08:00 5,5 C 79 % 1022,8 hPa 0,0 mm 1,1 km/h (1 Bft) E-SE 112 2 min 0 W/m 2,2 C 5,5 C 1,1 km/h (1 Bft)
24/03/2012 08:10 6,1 C 78 % 1022,9 hPa 0,0 mm 0,7 km/h (0 Bft) E-SE 112 2 min 0 W/m 2,6 C 6,1 C 4,0 km/h (1 Bft)
24/03/2012 08:20 6,8 C 77 % 1023,0 hPa 0,0 mm 4,0 km/h (1 Bft) E-SE 112 2 min 0 W/m 3,1 C 6,8 C 4,3 km/h (1 Bft)
24/03/2012 08:30 7,6 C 76 % 1023,2 hPa 0,0 mm 0,7 km/h (0 Bft) E-SE 112 2 min 0 W/m 3,6 C 7,6 C 2,9 km/h (1 Bft)
24/03/2012 08:40 8,3 C 75 % 1023,2 hPa 0,0 mm 0,0 km/h (0 Bft) E-SE 112 2 min 0 W/m 4,1 C 8,3 C 0,0 km/h (0 Bft)
24/03/2012 08:50 8,8 C 73 % 1023,2 hPa 0,0 mm 0,4 km/h (0 Bft) E-SE 112 2 min 0 W/m 4,2 C 8,8 C 3,6 km/h (1 Bft)
24/03/2012 09:00 9,6 C 72 % 1023,2 hPa 0,0 mm 0,7 km/h (0 Bft) E-NE 67 2 min 0 W/m 4,8 C 9,6 C 4,0 km/h (1 Bft)
24/03/2012 09:10 10,3 C 71 % 1023,3 hPa 0,0 mm 0,4 km/h (0 Bft) E-NE 67 2 min 0 W/m 5,3 C 10,3 C 3,2 km/h (1 Bft)
24/03/2012 09:20 10,9 C 69 % 1023,3 hPa 0,0 mm 2,2 km/h (1 Bft) E 90 2 min 0 W/m 5,4 C 10,9 C 3,2 km/h (1 Bft)
24/03/2012 09:30 11,8 C 68 % 1023,4 hPa 0,0 mm 0,7 km/h (0 Bft) E 90 2 min 0 W/m 6,1 C 11,8 C 3,2 km/h (1 Bft)
24/03/2012 09:40 12,6 C 66 % 1023,5 hPa 0,0 mm 2,9 km/h (1 Bft) E-SE 112 2 min 0 W/m 6,4 C 12,6 C 4,3 km/h (1 Bft)
24/03/2012 09:50 13,5 C 65 % 1023,5 hPa 0,0 mm 0,0 km/h (0 Bft) E-SE 112 2 min 0 W/m 7,1 C 13,5 C 0,0 km/h (0 Bft)
24/03/2012 10:00 14,5 C 62 % 1023,7 hPa 0,0 mm 0,0 km/h (0 Bft) E 90 2 min 0 W/m 7,3 C 14,5 C 0,0 km/h (0 Bft)
24/03/2012 10:10 15,5 C 61 % 1023,8 hPa 0,0 mm 0,0 km/h (0 Bft) E 90 2 min 0 W/m 8,0 C 15,5 C 0,0 km/h (0 Bft)
24/03/2012 10:20 16,4 C 58 % 1023,8 hPa 0,0 mm 0,0 km/h (0 Bft) E 90 2 min 0 W/m 8,1 C 16,4 C 0,0 km/h (0 Bft)
24/03/2012 10:30 17,1 C 57 % 1023,9 hPa 0,0 mm 0,0 km/h (0 Bft) E 90 2 min 0 W/m 8,5 C 17,1 C 0,0 km/h (0 Bft)
24/03/2012 10:40 17,8 C 55 % 1023,8 hPa 0,0 mm 0,0 km/h (0 Bft) NE 45 2 min 0 W/m 8,6 C 17,8 C 2,9 km/h (1 Bft)
24/03/2012 10:50 18,6 C 54 % 1023,9 hPa 0,0 mm 2,2 km/h (1 Bft) NE 45 2 min 0 W/m 9,1 C 18,6 C 3,2 km/h (1 Bft)
24/03/2012 11:00 19,3 C 52 % 1023,8 hPa 0,0 mm 1,1 km/h (1 Bft) NE 45 2 min 0 W/m 9,2 C 19,3 C 1,1 km/h (1 Bft)
24/03/2012 11:10 20,1 C 51 % 1023,8 hPa 0,0 mm 0,0 km/h (0 Bft) NE 45 2 min 0 W/m 9,6 C 20,1 C 0,0 km/h (0 Bft)
24/03/2012 11:20 20,8 C 50 % 1023,8 hPa 0,0 mm 0,0 km/h (0 Bft) NE 45 2 min 0 W/m 10,0 C 20,8 C 0,0 km/h (0 Bft)
24/03/2012 11:30 21,2 C 49 % 1023,6 hPa 0,0 mm 2,5 km/h (1 Bft) NE 45 2 min 0 W/m 10,1 C 21,2 C 3,6 km/h (1 Bft)
24/03/2012 11:40 21,8 C 49 % 1023,7 hPa 0,0 mm 0,7 km/h (0 Bft) N-NE 22 2 min 0 W/m 10,6 C 21,8 C 0,7 km/h (0 Bft)
24/03/2012 11:50 22,4 C 46 % 1023,7 hPa 0,0 mm 1,1 km/h (1 Bft) E-SE 112 2 min 0 W/m 10,2 C 22,4 C 4,3 km/h (1 Bft)
24/03/2012 12:00 22,8 C 45 % 1023,7 hPa 0,0 mm 2,9 km/h (1 Bft) N-NE 22 2 min 0 W/m 10,2 C 22,8 C 7,2 km/h (2 Bft)
24/03/2012 12:10 23,1 C 42 % 1023,5 hPa 0,0 mm 6,8 km/h (2 Bft) NE 45 2 min 0 W/m 9,5 C 23,1 C 11,2 km/h (2 Bft)
24/03/2012 12:20 23,1 C 41 % 1023,5 hPa 0,0 mm 3,2 km/h (1 Bft) N-NE 22 2 min 0 W/m 9,1 C 23,1 C 4,7 km/h (1 Bft)
24/03/2012 12:30 23,2 C 40 % 1023,4 hPa 0,0 mm 4,3 km/h (1 Bft) NE 45 2 min 0 W/m 8,8 C 23,2 C 7,2 km/h (2 Bft)
24/03/2012 12:40 23,1 C 40 % 1023,3 hPa 0,0 mm 4,0 km/h (1 Bft) NE 45 2 min 0 W/m 8,8 C 23,1 C 6,8 km/h (2 Bft)
24/03/2012 12:50 23,2 C 39 % 1023,5 hPa 0,0 mm 0,4 km/h (0 Bft) N-NE 22 2 min 0 W/m 8,5 C 23,2 C 3,6 km/h (1 Bft)
24/03/2012 13:00 23,4 C 39 % 1023,4 hPa 0,0 mm 5,0 km/h (1 Bft) NE 45 2 min 0 W/m 8,6 C 23,4 C 7,6 km/h (2 Bft)
24/03/2012 13:10 23,3 C 38 % 1023,3 hPa 0,0 mm 4,7 km/h (1 Bft) NE 45 2 min 0 W/m 8,2 C 23,3 C 7,6 km/h (2 Bft)
24/03/2012 13:20 23,1 C 37 % 1023,3 hPa 0,0 mm 1,1 km/h (1 Bft) N 360 2 min 0 W/m 7,6 C 23,1 C 1,1 km/h (1 Bft)
24/03/2012 13:30 23,2 C 37 % 1023,1 hPa 0,0 mm 4,0 km/h (1 Bft) N-NE 22 2 min 0 W/m 7,7 C 23,2 C 4,3 km/h (1 Bft)
24/03/2012 13:40 23,3 C 35 % 1023,1 hPa 0,0 mm 5,0 km/h (1 Bft) NE 45 2 min 0 W/m 7,0 C 23,3 C 7,6 km/h (2 Bft)
24/03/2012 13:50 23,2 C 35 % 1023,1 hPa 0,0 mm 7,2 km/h (2 Bft) NE 45 2 min 0 W/m 6,9 C 23,2 C 10,1 km/h (2 Bft)
24/03/2012 14:00 22,9 C 35 % 1022,9 hPa 0,0 mm 5,0 km/h (1 Bft) N-NE 22 2 min 0 W/m 6,6 C 22,9 C 10,1 km/h (2 Bft)
24/03/2012 14:10 22,9 C 36 % 1022,9 hPa 0,0 mm 8,3 km/h (2 Bft) NE 45 2 min 0 W/m 7,0 C 22,9 C 8,3 km/h (2 Bft)
24/03/2012 14:20 22,9 C 34 % 1022,8 hPa 0,0 mm 6,8 km/h (2 Bft) N-NE 22 2 min 0 W/m 6,2 C 22,9 C 8,3 km/h (2 Bft)
24/03/2012 14:30 22,9 C 34 % 1022,5 hPa 0,0 mm 6,5 km/h (2 Bft) N-NE 22 2 min 0 W/m 6,2 C 22,9 C 6,8 km/h (2 Bft)
24/03/2012 14:40 22,8 C 34 % 1022,6 hPa 0,0 mm 8,6 km/h (2 Bft) NE 45 2 min 0 W/m 6,1 C 22,8 C 8,6 km/h (2 Bft)
24/03/2012 14:50 22,8 C 34 % 1022,5 hPa 0,0 mm 7,2 km/h (2 Bft) E-NE 67 2 min 0 W/m 6,1 C 22,8 C 10,4 km/h (2 Bft)
24/03/2012 15:00 22,8 C 34 % 1022,4 hPa 0,0 mm 7,6 km/h (2 Bft) NE 45 2 min 0 W/m 6,1 C 22,8 C 7,9 km/h (2 Bft)
24/03/2012 15:10 22,6 C 34 % 1022,4 hPa 0,0 mm 7,9 km/h (2 Bft) N-NE 22 2 min 0 W/m 5,9 C 22,6 C 10,1 km/h (2 Bft)
24/03/2012 15:20 22,4 C 35 % 1022,4 hPa 0,0 mm 6,8 km/h (2 Bft) E-NE 67 2 min 0 W/m 6,2 C 22,4 C 9,7 km/h (2 Bft)
24/03/2012 15:30 22,3 C 34 % 1022,3 hPa 0,0 mm 7,6 km/h (2 Bft) NE 45 0 min 0 W/m 5,7 C 22,3 C 9,0 km/h (2 Bft)
24/03/2012 15:40 22,3 C 34 % 1022,2 hPa 0,0 mm 5,4 km/h (2 Bft) NE 45 0 min 0 W/m 5,7 C 22,3 C 12,6 km/h (3 Bft)
24/03/2012 15:50 22,2 C 34 % 1022,2 hPa 0,0 mm 7,6 km/h (2 Bft) NE 45 0 min 0 W/m 5,6 C 22,2 C 10,1 km/h (2 Bft)
24/03/2012 16:00 22,1 C 34 % 1022,1 hPa 0,0 mm 5,8 km/h (2 Bft) E-NE 67 0 min 0 W/m 5,5 C 22,1 C 8,3 km/h (2 Bft)
24/03/2012 16:10 22,0 C 37 % 1022,1 hPa 0,0 mm 3,6 km/h (1 Bft) NE 45 0 min 0 W/m 6,6 C 22,0 C 3,6 km/h (1 Bft)
24/03/2012 16:20 22,0 C 38 % 1022,0 hPa 0,0 mm 4,7 km/h (1 Bft) E-NE 67 0 min 0 W/m 7,0 C 22,0 C 7,2 km/h (2 Bft)
24/03/2012 16:30 21,8 C 38 % 1021,9 hPa 0,0 mm 5,8 km/h (2 Bft) N-NE 22 0 min 0 W/m 6,8 C 21,8 C 6,8 km/h (2 Bft)
24/03/2012 16:40 21,8 C 40 % 1021,8 hPa 0,0 mm 3,2 km/h (1 Bft) NE 45 0 min 0 W/m 7,6 C 21,8 C 4,3 km/h (1 Bft)
24/03/2012 16:50 21,8 C 41 % 1021,7 hPa 0,0 mm 6,8 km/h (2 Bft) NE 45 0 min 0 W/m 8,0 C 21,8 C 9,4 km/h (2 Bft)
24/03/2012 17:00 21,6 C 41 % 1021,8 hPa 0,0 mm 11,9 km/h (2 Bft) N-NE 22 0 min 0 W/m 7,8 C 21,6 C 16,9 km/h (3 Bft)
24/03/2012 17:10 21,4 C 42 % 1021,8 hPa 0,0 mm 7,6 km/h (2 Bft) N-NE 22 0 min 0 W/m 8,0 C 21,4 C 10,4 km/h (2 Bft)
24/03/2012 17:20 21,2 C 43 % 1021,8 hPa 0,0 mm 6,5 km/h (2 Bft) N-NE 22 0 min 0 W/m 8,1 C 21,2 C 10,4 km/h (2 Bft)
24/03/2012 17:30 21,1 C 44 % 1021,8 hPa 0,0 mm 6,5 km/h (2 Bft) NE 45 0 min 0 W/m 8,4 C 21,1 C 10,8 km/h (2 Bft)
24/03/2012 17:40 21,0 C 45 % 1021,9 hPa 0,0 mm 8,3 km/h (2 Bft) E-NE 67 0 min 0 W/m 8,6 C 21,0 C 11,2 km/h (2 Bft)
24/03/2012 17:50 20,8 C 44 % 1022,0 hPa 0,0 mm 4,3 km/h (1 Bft) N-NE 22 2 min 0 W/m 8,1 C 20,8 C 7,6 km/h (2 Bft)
24/03/2012 18:00 20,5 C 44 % 1022,0 hPa 0,0 mm 4,7 km/h (1 Bft) NE 45 2 min 0 W/m 7,8 C 20,5 C 8,3 km/h (2 Bft)
24/03/2012 18:10 20,2 C 44 % 1022,0 hPa 0,0 mm 3,6 km/h (1 Bft) N-NE 22 2 min 0 W/m 7,6 C 20,2 C 8,3 km/h (2 Bft)
24/03/2012 18:20 19,8 C 44 % 1022,0 hPa 0,0 mm 6,1 km/h (2 Bft) N-NE 22 2 min 0 W/m 7,2 C 19,8 C 7,2 km/h (2 Bft)
24/03/2012 18:30 19,4 C 44 % 1022,1 hPa 0,0 mm 7,9 km/h (2 Bft) N-NE 22 2 min 0 W/m 6,8 C 19,4 C 7,9 km/h (2 Bft)
24/03/2012 18:40 18,9 C 45 % 1022,2 hPa 0,0 mm 5,8 km/h (2 Bft) NE 45 2 min 0 W/m 6,7 C 18,9 C 5,8 km/h (2 Bft)
24/03/2012 18:50 18,5 C 46 % 1022,3 hPa 0,0 mm 4,0 km/h (1 Bft) NE 45 2 min 0 W/m 6,7 C 18,5 C 4,0 km/h (1 Bft)
24/03/2012 19:00 17,9 C 46 % 1022,5 hPa 0,0 mm 5,4 km/h (2 Bft) N-NE 22 2 min 0 W/m 6,1 C 17,9 C 8,6 km/h (2 Bft)
24/03/2012 19:10 17,4 C 46 % 1022,4 hPa 0,0 mm 8,6 km/h (2 Bft) N-NE 22 0 min 0 W/m 5,7 C 17,4 C 14,0 km/h (3 Bft)
24/03/2012 19:20 16,9 C 47 % 1022,5 hPa 0,0 mm 3,6 km/h (1 Bft) N-NE 22 0 min 0 W/m 5,5 C 16,9 C 4,3 km/h (1 Bft)
24/03/2012 19:30 16,5 C 47 % 1022,6 hPa 0,0 mm 2,9 km/h (1 Bft) N-NE 22 0 min 0 W/m 5,2 C 16,5 C 4,3 km/h (1 Bft)
24/03/2012 19:40 16,2 C 48 % 1022,7 hPa 0,0 mm 3,6 km/h (1 Bft) NE 45 0 min 0 W/m 5,2 C 16,2 C 8,3 km/h (2 Bft)
24/03/2012 19:50 15,8 C 49 % 1022,8 hPa 0,0 mm 3,2 km/h (1 Bft) N-NE 22 0 min 0 W/m 5,1 C 15,8 C 4,0 km/h (1 Bft)
24/03/2012 20:00 15,4 C 49 % 1022,9 hPa 0,0 mm 2,9 km/h (1 Bft) NE 45 0 min 0 W/m 4,7 C 15,4 C 3,6 km/h (1 Bft)
24/03/2012 20:10 15,1 C 50 % 1023,0 hPa 0,0 mm 1,4 km/h (1 Bft) E-NE 67 0 min 0 W/m 4,8 C 15,1 C 4,3 km/h (1 Bft)
24/03/2012 20:20 14,8 C 50 % 1023,1 hPa 0,0 mm 1,4 km/h (1 Bft) NE 45 0 min 0 W/m 4,5 C 14,8 C 1,4 km/h (1 Bft)
24/03/2012 20:30 14,5 C 51 % 1023,2 hPa 0,0 mm 0,4 km/h (0 Bft) NE 45 0 min 0 W/m 4,5 C 14,5 C 3,6 km/h (1 Bft)
24/03/2012 20:40 14,2 C 51 % 1023,2 hPa 0,0 mm 0,0 km/h (0 Bft) NE 45 0 min 0 W/m 4,2 C 14,2 C 0,0 km/h (0 Bft)
24/03/2012 20:50 13,9 C 52 % 1023,4 hPa 0,0 mm 3,2 km/h (1 Bft) NE 45 0 min 0 W/m 4,2 C 13,9 C 6,5 km/h (2 Bft)
24/03/2012 21:00 13,6 C 52 % 1023,3 hPa 0,0 mm 0,0 km/h (0 Bft) NE 45 0 min 0 W/m 3,9 C 13,6 C 3,2 km/h (1 Bft)
24/03/2012 21:10 13,4 C 53 % 1023,4 hPa 0,0 mm 0,7 km/h (0 Bft) NE 45 0 min 0 W/m 4,0 C 13,4 C 4,0 km/h (1 Bft)
24/03/2012 21:20 13,3 C 53 % 1023,5 hPa 0,0 mm 0,0 km/h (0 Bft) NE 45 0 min 0 W/m 3,9 C 13,3 C 0,0 km/h (0 Bft)
24/03/2012 21:30 12,9 C 53 % 1023,5 hPa 0,0 mm 0,0 km/h (0 Bft) E 90 0 min 0 W/m 3,6 C 12,9 C 0,0 km/h (0 Bft)
24/03/2012 21:40 12,7 C 53 % 1023,6 hPa 0,0 mm 0,0 km/h (0 Bft) E 90 0 min 0 W/m 3,4 C 12,7 C 0,0 km/h (0 Bft)
24/03/2012 21:50 12,4 C 54 % 1023,7 hPa 0,0 mm 0,7 km/h (0 Bft) E-NE 67 0 min 0 W/m 3,4 C 12,4 C 0,7 km/h (0 Bft)
24/03/2012 22:00 12,3 C 55 % 1023,7 hPa 0,0 mm 1,4 km/h (1 Bft) E-NE 67 0 min 0 W/m 3,5 C 12,3 C 4,3 km/h (1 Bft)
24/03/2012 22:10 12,2 C 55 % 1023,8 hPa 0,0 mm 0,4 km/h (0 Bft) E-NE 67 0 min 0 W/m 3,4 C 12,2 C 4,0 km/h (1 Bft)
24/03/2012 22:20 12,0 C 56 % 1023,7 hPa 0,0 mm 0,7 km/h (0 Bft) E-SE 112 0 min 0 W/m 3,5 C 12,0 C 0,7 km/h (0 Bft)
24/03/2012 22:30 12,1 C 57 % 1023,7 hPa 0,0 mm 0,4 km/h (0 Bft) E 90 0 min 0 W/m 3,8 C 12,1 C 4,3 km/h (1 Bft)
24/03/2012 22:40 12,0 C 57 % 1023,8 hPa 0,0 mm 0,0 km/h (0 Bft) E 90 0 min 0 W/m 3,8 C 12,0 C 3,2 km/h (1 Bft)
24/03/2012 22:50 11,8 C 57 % 1023,8 hPa 0,0 mm 0,0 km/h (0 Bft) E 90 0 min 0 W/m 3,6 C 11,8 C 0,0 km/h (0 Bft)
24/03/2012 23:00 11,6 C 58 % 1023,6 hPa 0,0 mm 0,0 km/h (0 Bft) E 90 0 min 0 W/m 3,6 C 11,6 C 0,0 km/h (0 Bft)
24/03/2012 23:10 11,4 C 59 % 1023,6 hPa 0,0 mm 1,1 km/h (1 Bft) E 90 0 min 0 W/m 3,7 C 11,4 C 1,1 km/h (1 Bft)
24/03/2012 23:20 11,2 C 59 % 1023,6 hPa 0,0 mm 0,0 km/h (0 Bft) E 90 0 min 0 W/m 3,5 C 11,2 C 3,2 km/h (1 Bft)
24/03/2012 23:30 11,0 C 60 % 1023,6 hPa 0,0 mm 0,0 km/h (0 Bft) E 90 0 min 0 W/m 3,5 C 11,0 C 0,0 km/h (0 Bft)
24/03/2012 23:40 10,8 C 61 % 1023,6 hPa 0,0 mm 0,0 km/h (0 Bft) E 90 0 min 0 W/m 3,6 C 10,8 C 0,0 km/h (0 Bft)
24/03/2012 23:50 10,5 C 61 % 1023,6 hPa 0,0 mm 0,0 km/h (0 Bft) E 90 0 min 0 W/m 3,3 C 10,5 C 0,0 km/h (0 Bft)
_ Min-Heure 07:20 16:00 16:50 - 23:50 - - - - 05:20 07:20 23:50
Minimum _ 4,8 C 34 % 1021,7 hPa - 0,0 km/h (0 Bft) - - - - 1,3 C 4,8 C 0,0 km/h (0 Bft)
_ Max-Heure 13:00 08:00 10:50 23:50 17:00 - - 19:00 23:50 11:40 13:00 17:00
Maximum _ 23,4 C 79 % 1023,9 hPa 0,0 mm 11,9 km/h
N-NE (2 Bft)
- - 2 min 0 W/m 10,6 C 23,4 C 16,9 km/h
N-NE (3 Bft)
Moyenne _ 13,9 C 57 % 1022,7 hPa #0,0 mm 2,2 km/h (1 Bft) NE - #1:56 h 0 W/m 4,8 C 13,9 C 3,7 km/h (1 Bft)
Saint Bonnet de Bellac- Haute Vienne - France